{"data":{"norad_id":66147,"epoch":"2026-05-25T02:11:55.555008Z","epoch_age_seconds":63134,"freshness":"FRESH","line1":"1 66147U 25240B   26145.09161522  .00019823  00000+0  67957-3 0  9990","line2":"2 66147  53.1580  68.0953 0000771  98.8227 261.2861 15.30202999 33732","mean_motion":15.30202999,"eccentricity":7.71e-5,"inclination_deg":53.158,"raan_deg":68.0953,"arg_perigee_deg":98.8227,"mean_anomaly_deg":261.2861,"bstar":0.00067957,"rev_number":3373,"period_min":94.105161272135,"perigee_km":474.67772220636,"apogee_km":475.73450771469,"semimajor_km":6853.3431149605,"source":"CELESTRAK","updated_at":"2026-05-25T13:38:21.068628Z"}}